sat.trackr.live / text

‹ back to catalog

GJZ 03

NORAD 62292 · 2024-238C

PAYLOAD ACTIVE UNKNOWN

§ Identity

Operator
Country
PRC
Launch date
2024-12-12
Launch site
JSC
Launch vehicle
Mass (kg)
RCS (m²)

External: N2YO · Heavens-Above · Gunter

§ Orbital elements

Epoch: 2026-05-25T01:52:58.659744Z

Period
104.71 min
Inclination
59.9145°
Eccentricity
0.0016028
Mean motion
13.75203694 rev/d
Perigee alt
969.2 km
Apogee alt
992.7 km
Semi-major
7,359.1 km
B*
6.1565e-5
RAAN
340.9612°
Arg perigee
344.0882°
Mean anomaly
15.9620°
Rev number
7,271

§ Raw data

GJZ 031 62292U 24238C   26145.07845671 -.00000060  00000+0  61565-4 0  99992 62292  59.9145 340.9612 0016028 344.0882  15.9620 13.75203694 72717

JSON: /api/v1/satellites/62292 · /tle

For live sub-satellite position, see the globe view (requires WebGL).

§ Visibility from observer

Set your observer location to see the next 7 days of passes ≥ 10°. The values pass through the URL so the page stays shareable.

No JS? Fill the form by hand. The geolocation button needs JavaScript.